Ely, MN

3:01 PM CDT on June 26, 2017 (GMT -0500)
Ely Municipal

Weather History for KELO - February, 2013

Change the Weather History Date:

Wednesday, February 27, 2013

  Actual Average Record
Temperature  
Mean Temperature 18 °F -  
Max Temperature 32 °F 24 °F 46 °F (2016)
Min Temperature 3 °F 5 °F -25 °F (2014)
Degree Days  
Heating Degree Days 48    
Moisture  
Dew Point 15 °F    
Average Humidity 82    
Maximum Humidity 100    
Minimum Humidity 64    
Precipitation  
Precipitation 0.00 in - - ()
Sea Level Pressure  
Sea Level Pressure 29.98 in    
Wind  
Wind Speed 3 mph (NNE)    
Max Wind Speed 14 mph    
Max Gust Speed 21 mph    
Visibility 9 miles    
Events Fog    
Averages and records for this station are not official NWS values.
T = Trace of Precipitation, MM = Missing Value Source: NWS Daily Summary

Daily Weather History Graph

Daily Weather History Graph

Search for Another Location

Airport or City:

Trip Planner

Search our weather history database for the weather conditions in past years. The results will help you decide how hot, cold, wet, or windy it might be!

Date:

Astronomy

Feb. 27, 2013 Rise Set
Actual Time 6:51 AM CST 5:49 PM CST
Civil Twilight 6:20 AM CST 6:20 PM CST
Nautical Twilight 5:44 AM CST 6:56 PM CST
Astronomical Twilight 5:08 AM CST 7:32 PM CST
Moon 8:25 PM CST (2/27) 7:14 AM CST (2/27)
Length of Visible Light 12h 00m
Length of Day
10h 58m
Waning Gibbous, 96% of the Moon is Illuminated
Feb 27
Waning Gibbous
Mar 4
Last Quarter
Mar 11
New
Mar 19
First Quarter
Mar 27
Full

Hourly Weather History & Observations

Time (CST) Temp. Windchill Dew Point Humidity Pressure Visibility Wind Dir Wind Speed Gust Speed Precip Events Conditions
12:12 AM 12.2 °F - 10.4 °F 92% 29.96 in 10.0 mi Calm Calm - N/A   Clear
12:33 AM 10.4 °F - 8.6 °F 92% 29.96 in 10.0 mi Calm Calm - N/A   Clear
12:53 AM 10.4 °F - 8.6 °F 92% 29.96 in 10.0 mi Calm Calm - N/A   Clear
1:12 AM 12.2 °F - 8.6 °F 85% 29.95 in 10.0 mi Calm Calm - N/A   Clear
1:33 AM 10.4 °F - 8.6 °F 92% 29.96 in 10.0 mi Calm Calm - N/A   Clear
1:53 AM 10.4 °F - 8.6 °F 92% 29.96 in 10.0 mi Calm Calm - N/A   Clear
2:12 AM 10.4 °F - 8.6 °F 92% 29.95 in 10.0 mi Calm Calm - N/A   Clear
2:33 AM 8.6 °F - 6.8 °F 92% 29.95 in 10.0 mi Calm Calm - N/A   Clear
2:52 AM 8.6 °F - 6.8 °F 92% 29.95 in 10.0 mi Calm Calm - N/A   Clear
3:13 AM 8.6 °F - 8.6 °F 100% 29.95 in 0.5 mi Calm Calm - N/A Fog Light Freezing Fog
3:33 AM 8.6 °F - 6.8 °F 92% 29.95 in 10.0 mi Calm Calm - N/A   Scattered Clouds
3:52 AM 8.6 °F - 6.8 °F 92% 29.95 in 2.5 mi Calm Calm - N/A   Mostly Cloudy
4:13 AM 6.8 °F - 3.2 °F 85% 29.95 in 3.0 mi Calm Calm - N/A   Mostly Cloudy
4:33 AM 6.8 °F - 3.2 °F 85% 29.95 in 0.5 mi Calm Calm - N/A Fog Light Freezing Fog
4:52 AM 3.2 °F - 1.4 °F 92% 29.94 in 1.2 mi Calm Calm - N/A   Mostly Cloudy
5:13 AM 5.0 °F - 1.4 °F 85% 29.94 in 10.0 mi Calm Calm - N/A   Clear
5:33 AM 5.0 °F - 3.2 °F 92% 29.94 in 10.0 mi Calm Calm - N/A   Clear
5:52 AM 3.2 °F - -0.4 °F 85% 29.94 in 10.0 mi Calm Calm - N/A   Clear
6:13 AM 6.8 °F - 3.2 °F 85% 29.94 in 10.0 mi Calm Calm - N/A   Clear
6:33 AM 5.0 °F - 3.2 °F 92% 29.94 in 10.0 mi Calm Calm - N/A   Clear
6:52 AM 6.8 °F - 3.2 °F 85% 29.94 in 10.0 mi Calm Calm - N/A   Clear
7:13 AM 6.8 °F - 3.2 °F 85% 29.95 in 10.0 mi Calm Calm - N/A   Clear
7:33 AM 8.6 °F - 6.8 °F 92% 29.95 in 10.0 mi Calm Calm - N/A   Clear
7:52 AM 12.2 °F - 10.4 °F 92% 29.95 in 10.0 mi Calm Calm - N/A   Clear
8:13 AM 15.8 °F - 14.0 °F 93% 29.95 in 10.0 mi Calm Calm - N/A   Clear
8:33 AM 17.6 °F 12.3 °F 15.8 °F 93% 29.95 in 10.0 mi NNE 3.5 mph - N/A   Clear
8:52 AM 19.4 °F 12.8 °F 17.6 °F 93% 29.95 in 10.0 mi NNE 4.6 mph - N/A   Scattered Clouds
9:13 AM 19.4 °F 10.4 °F 19.4 °F 100% 29.95 in 10.0 mi NNE 6.9 mph - N/A   Overcast
9:33 AM 19.4 °F 7.2 °F 19.4 °F 100% 29.95 in 10.0 mi NNE 11.5 mph 17.3 mph N/A   Overcast
9:52 AM 21.2 °F 10.9 °F 19.4 °F 93% 29.96 in 10.0 mi NNE 9.2 mph - N/A   Overcast
10:13 AM 21.2 °F 9.5 °F 19.4 °F 93% 29.96 in 10.0 mi NE 11.5 mph 18.4 mph N/A   Overcast
10:32 AM 21.2 °F 11.7 °F 21.2 °F 100% 29.96 in 10.0 mi NNE 8.1 mph - N/A   Overcast
10:53 AM 21.2 °F 13.6 °F 19.4 °F 93% 29.96 in 10.0 mi NE 5.8 mph - N/A   Overcast
11:13 AM 21.2 °F 10.9 °F 19.4 °F 93% 29.97 in 10.0 mi ENE 9.2 mph 16.1 mph N/A   Overcast
11:33 AM 23.0 °F 14.7 °F 19.4 °F 86% 29.97 in 10.0 mi NE 6.9 mph - N/A   Overcast
11:52 AM 24.8 °F 19.1 °F 19.4 °F 80% 29.97 in 10.0 mi NNE 4.6 mph - N/A   Overcast
12:13 PM 24.8 °F 15.3 °F 19.4 °F 80% 29.96 in 10.0 mi NNE 9.2 mph 17.3 mph N/A   Overcast
12:32 PM 24.8 °F 16.9 °F 19.4 °F 80% 29.96 in 10.0 mi NNE 6.9 mph - N/A   Overcast
12:53 PM 26.6 °F 19.1 °F 19.4 °F 74% 29.96 in 10.0 mi NNE 6.9 mph - N/A   Overcast
1:13 PM 26.6 °F 16.8 °F 19.4 °F 74% 29.96 in 10.0 mi NNE 10.4 mph 16.1 mph N/A   Overcast
1:32 PM 28.4 °F 21.2 °F 19.4 °F 69% 29.96 in 10.0 mi NNE 6.9 mph 10.4 mph N/A   Overcast
1:53 PM 28.4 °F 22.2 °F 21.2 °F 74% 29.96 in 10.0 mi NNE 5.8 mph - N/A   Overcast
2:13 PM 28.4 °F 21.2 °F 21.2 °F 74% 29.96 in 10.0 mi NE 6.9 mph - N/A   Overcast
2:32 PM 30.2 °F 23.4 °F 21.2 °F 69% 29.96 in 10.0 mi NNE 6.9 mph - N/A   Overcast
2:53 PM 30.2 °F 26.7 °F 21.2 °F 69% 29.96 in 10.0 mi NNE 3.5 mph - N/A   Mostly Cloudy
3:13 PM 30.2 °F 25.4 °F 21.2 °F 69% 29.96 in 10.0 mi NNE 4.6 mph - N/A   Overcast
3:32 PM 30.2 °F 24.3 °F 21.2 °F 69% 29.96 in 10.0 mi NNE 5.8 mph - N/A   Overcast
3:53 PM 30.2 °F 24.3 °F 21.2 °F 69% 29.96 in 10.0 mi NNE 5.8 mph - N/A   Overcast
4:13 PM 32.0 °F 26.4 °F 21.2 °F 64% 29.97 in 10.0 mi North 5.8 mph - N/A   Overcast
4:32 PM 32.0 °F 25.6 °F 21.2 °F 64% 29.98 in 10.0 mi North 6.9 mph - N/A   Overcast
4:53 PM 30.2 °F 25.4 °F 21.2 °F 69% 29.98 in 10.0 mi North 4.6 mph - N/A   Overcast
5:13 PM 30.2 °F 22.6 °F 21.2 °F 69% 29.98 in 10.0 mi NNE 8.1 mph - N/A   Overcast
5:32 PM 30.2 °F 22.6 °F 21.2 °F 69% 29.99 in 10.0 mi NNE 8.1 mph - N/A   Overcast
5:53 PM 30.2 °F 23.4 °F 19.4 °F 64% 30.00 in 10.0 mi North 6.9 mph - N/A   Overcast
6:13 PM 30.2 °F 23.4 °F 19.4 °F 64% 30.01 in 10.0 mi NNE 6.9 mph - N/A   Overcast
6:32 PM 28.4 °F 20.4 °F 19.4 °F 69% 30.01 in 10.0 mi NNE 8.1 mph - N/A   Overcast
6:53 PM 28.4 °F 22.2 °F 21.2 °F 74% 30.02 in 10.0 mi NNE 5.8 mph - N/A   Overcast
7:13 PM 28.4 °F 19.7 °F 21.2 °F 74% 30.02 in 10.0 mi NE 9.2 mph - N/A   Overcast
7:32 PM 28.4 °F 23.3 °F 21.2 °F 74% 30.02 in 10.0 mi NNE 4.6 mph - N/A   Overcast
7:53 PM 28.4 °F 21.2 °F 21.2 °F 74% 30.02 in 10.0 mi North 6.9 mph 17.3 mph N/A   Overcast
8:12 PM 28.4 °F 19.7 °F 21.2 °F 74% 30.03 in 10.0 mi North 9.2 mph - N/A   Overcast
8:33 PM 26.6 °F 16.2 °F 21.2 °F 80% 30.04 in 10.0 mi NNE 11.5 mph 19.6 mph N/A   Overcast
8:53 PM 26.6 °F 15.2 °F 19.4 °F 74% 30.04 in 10.0 mi NE 13.8 mph 20.7 mph N/A   Overcast
9:12 PM 26.6 °F 16.8 °F 19.4 °F 74% 30.04 in 10.0 mi NNE 10.4 mph 17.3 mph N/A   Overcast
9:33 PM 26.6 °F 17.5 °F 19.4 °F 74% 30.05 in 10.0 mi NNE 9.2 mph 17.3 mph N/A   Overcast
9:53 PM 26.6 °F 17.5 °F 19.4 °F 74% 30.05 in 10.0 mi NNE 9.2 mph 16.1 mph N/A   Overcast
10:12 PM 24.8 °F 16.1 °F 19.4 °F 80% 30.06 in 10.0 mi NE 8.1 mph 19.6 mph N/A   Overcast
10:33 PM 24.8 °F 15.3 °F 19.4 °F 80% 30.06 in 10.0 mi NE 9.2 mph 17.3 mph N/A   Overcast
10:53 PM 24.8 °F 14.0 °F 19.4 °F 80% 30.06 in 10.0 mi NNE 11.5 mph 19.6 mph N/A   Overcast
11:13 PM 24.8 °F 15.3 °F 17.6 °F 74% 30.07 in 10.0 mi NNE 9.2 mph 16.1 mph N/A   Overcast
11:33 PM 24.8 °F 16.1 °F 17.6 °F 74% 30.07 in 10.0 mi NNE 8.1 mph 16.1 mph N/A   Overcast